Regional Weather Roundup
Issued by NWS

Home | Current Version | Previous Version | Text Only | Print | Product List | Glossary On
Versions: 1 2 3 4 5 6 7 8 9 10 11 12 13 14 15 16 17 18 19 20 21 22 23 24 25 26 27
000
ASUS45 KTFX 251110
RWRMT
MONTANA REGIONAL WEATHER ROUNDUP
NATIONAL WEATHER SERVICE GREAT FALLS MT
500 AM MDT SAT MAR 25 2017

NOTE: "FAIR" INDICATES FEW OR NO CLOUDS BELOW 12000 FEET WITH NO
SIGNIFICANT WEATHER AND/OR OBSTRUCTIONS TO VISIBILITY.

MTZ001>007-043-251200-
WEST OF THE DIVIDE

CITY           SKY/WX    TMP DP  RH WIND       PRES   REMARKS
KALISPELL      PTCLDY    37  32  82 SE8       29.98S WCI  31
MISSOULA       CLOUDY    41  32  70 VRB3      30.04S
BUTTE          CLOUDY    36  24  62 NW10      29.99R WCI  28
MULLAN PASS    CLOUDY    28  27  96 SW10G18   29.96S WCI  19
ANACONDA         N/A     37  23  56 W8G16     30.01R WCI  31
DEER LODGE       N/A     36  30  80 NW5       30.03R
EUREKA           N/A     39  28  65 SE6       29.96S
HAMILTON         N/A     37  28  70 SE3       30.04S
PLAINS           N/A     38  30  73 CALM      30.02R
$$

MTZ008-052>055-251200-
SOUTHWEST MONTANA

CITY           SKY/WX    TMP DP  RH WIND       PRES   REMARKS
BOZEMAN        CLOUDY    39  37  92 E7        29.98S
DILLON         CLOUDY    38  31  76 S9        29.96S WCI  31
W YELLOWSTONE  CLOUDY    32  32 100 CALM      30.00F
ENNIS          CLOUDY    39  32  75 SE9       30.03S
THREE FORKS      N/A     39  39 100 CALM      29.97R
TWIN BRIDGES     N/A     38  32  79 NE5       29.97S
$$

MTZ009-010-012-014-046-048-049-054-251200-
EAST SLOPES AND CENTRAL MONTANA

CITY           SKY/WX    TMP DP  RH WIND       PRES   REMARKS
CUT BANK       MOCLDY    37  25  61 W23       29.83R WCI  26
GREAT FALLS    PTCLDY    42  27  55 SW14      29.90R
MALMSTROM AFB  CLOUDY    45  28  51 SW17G26   29.90R
HELENA         CLOUDY    41  35  79 NW3       29.97R
AUGUSTA          N/A     39  20  46 W24G32    29.87F WCI  28
BOWMANS CRNR   MOCLDY    37  22  54 SW15      29.90S WCI  28
CHOTEAU          N/A     41  21  45 SW17G30   29.86F
CONRAD           N/A     39  27  62 SW7       29.89R
FAIRFIELD        N/A     40  21  46 SW16      29.87F
POWER          MOCLDY    40  23  50 SW15      29.87S
RAYNESFORD     MOCLDY    44  27  51 W15       29.90R
$$

MTZ011-013-016-021-045-047-050-051-251200-
NORTH CENTRAL MONTANA

CITY           SKY/WX    TMP DP  RH WIND       PRES   REMARKS
HAVRE          MOCLDY    41  33  73 SW12      29.83R
LEWISTOWN      CLOUDY    45  29  53 W16       29.89R
N BAR RANCH    CLOUDY    45  30  57 NW24      29.89S
CHINOOK          N/A     43  32  65 W9        29.82R
DENTON         MOCLDY    44  30  57 W22G28    29.85R
FORT BENTON      N/A     46  30  53 MISG      29.87S
GEYSER           N/A     39  28  63 W17       29.88R WCI  30
GRASS RANGE    MOCLDY    46  32  56 SW15      29.85R
STANFORD       MOCLDY    38  29  70 W16       29.89R WCI  29
WINIFRED       MOCLDY    46  31  56 W17G24    29.86R
$$

MTZ017>020-022>027-061-062-251200-
NORTHEAST MONTANA

CITY           SKY/WX    TMP DP  RH WIND       PRES   REMARKS
GLASGOW        CLOUDY    43  31  62 NW7       29.79R
JORDAN           N/A     46  34  62 CALM      29.82R
SIDNEY         CLOUDY    46  34  62 S10       29.81F
WOLF POINT     CLOUDY    44  36  73 CALM      29.79R
MALTA          CLEAR     43  32  65 CALM      29.80R
PLENTYWOOD       N/A     43  34  70 SE7       29.80S
POPLAR           N/A     48  34  57 S3        29.79S
SCOBEY           N/A     42  25  51 SE2       29.76R
$$

MTZ028>42-056>058-251200-
SOUTHCENTRAL AND SOUTHEAST MONTANA

CITY           SKY/WX    TMP DP  RH WIND       PRES   REMARKS
BAKER          CLOUDY    42  31  64 SE9       29.86F
BILLINGS       CLOUDY    47  30  51 NE6       29.86R
LIVINGSTON     CLOUDY    43  35  73 W16G24    29.93R
MILES CITY     CLOUDY    47  33  58 S7        29.84R
BIG TIMBER     CLOUDY    45  34  65 W21       29.92S
EKALAKA          N/A     45  28  51 SE9       29.86R
FORSYTH          N/A     50  36  57 N8        29.84R
HARLOWTON      MOCLDY    41  33  73 W26       29.91S
LAUREL           N/A     44  26  49 CALM      29.86R
$$

REGIONAL REPORTS...DAKOTAS

CITY           SKY/WX    TMP DP  RH WIND       PRES   REMARKS
WILLISTON      CLOUDY    43  32  65 S12       29.84S
MINOT          CLOUDY    32  30  92 SE10      29.97F WCI  24
DICKINSON      CLOUDY    33  29  85 S18       29.87F WCI  22
BEACH            N/A    N/A N/A N/A MISG        N/A
TIOGA            N/A     32  32 100 SE8       29.89S WCI  25
WATFORD CITY     N/A     41  32  70 S14G20    29.85F
BISMARCK       CLOUDY    31  31 100 SE13      30.05F FOG     WCI  21
GRAND FORKS    CLEAR     27  26  96 SE7       30.16F WCI  19
FARGO          CLEAR     29  27  92 SE3       30.17S
BUFFALO SD       N/A     38  31  76 S14       29.82F WCI  30
RAPID CITY     CLOUDY    34  27  75 S12       29.94F WCI  25
$$

REGIONAL REPORTS...WYOMING/IDAHO/WASHINGTON

CITY           SKY/WX    TMP DP  RH WIND       PRES   REMARKS
GILLETTE       CLOUDY    44  30  57 S18       29.87S
SHERIDAN       CLOUDY    42  35  76 CALM      29.86R
BUFFALO WY     CLOUDY    48  24  39 NW9       29.88R
CODY           CLOUDY    47  26  44 W9        29.93S
YELLOWSTONE LA   N/A     30  30 100 CALM      30.03F
IDAHO FALLS    CLOUDY    41  40  96 S15       30.03R
SALMON         CLOUDY    39  30  70 W3        30.04R
BOISE          MOCLDY    39  36  89 SE7       30.08S
SPOKANE        MOCLDY    40  37  89 S10       29.99S
$$

REGIONAL REPORTS...ALBERTA

CITY           SKY/WX    TMP DP  RH WIND       PRES   REMARKS
EDMONTON       CLOUDY    30  27  86 W3        29.69R
CALGARY        PTCLDY    41  18  38 W15       29.71R
LETHBRIDGE     CLEAR     41  25  52 W16G29    29.79R
MEDICINE HAT   CLEAR     41  30  65 SW21G29   29.72R
WATERTON GATE    N/A     37  25  60 SW12G21     N/A  WCI  30
CARDSTON         N/A     37  23  56 W12G18      N/A  WCI  30
MILK RIVER       N/A     37  27  65 W22G28      N/A  WCI  27
$$

REGIONAL REPORTS...SASKATCHEWAN

CITY           SKY/WX    TMP DP  RH WIND       PRES   REMARKS
SWIFT CURRENT  CLOUDY    43  32  65 W17G24    29.67R
REGINA         LGT RAIN  36  32  87 SE22G32   29.73F WCI  24
SASKATOON      CLOUDY    36  32  87 SE9       29.63F WCI  29
CYPRESS HILLS    N/A     37  25  60 W16G24      N/A  WCI  28
VAL MARIE        N/A     43  30  61 SW5         N/A
ROCKGLEN         N/A     43  32  65 SW15        N/A
ASSINIBOIA       N/A     32  28  86 N6          N/A  WCI  26
$$




USA.gov is the U.S. government's official web portal to all federal, state and local government web resources and services.